{"data":{"norad_id":51990,"epoch":"2026-05-24T23:43:08.338944Z","epoch_age_seconds":72491,"freshness":"FRESH","line1":"1 51990U 22025AL  26144.98829096 -.00000162  00000+0  79056-5 0  9994","line2":"2 51990  53.2143  36.6013 0001908  91.0129 269.1082 15.08836461232853","mean_motion":15.08836461,"eccentricity":0.0001908,"inclination_deg":53.2143,"raan_deg":36.6013,"arg_perigee_deg":91.0129,"mean_anomaly_deg":269.1082,"bstar":7.9056e-6,"rev_number":23285,"period_min":95.437778528073,"perigee_km":538.43427265029,"apogee_km":541.07413993461,"semimajor_km":6917.8912062924,"source":"CELESTRAK","updated_at":"2026-05-25T13:38:16.997499Z"}}